FW1340 Weather Reports


time (UTC)temp
F
wind
direction
speed
knots
gust
knots
rain 1hr
in
rain 24hr
in
rain mn
in
humidity
%
barometer
mb
20260508211549 80 256 0.0 0.0 0.00 0.00 0.00 53 1016.2
20260508210044 80 307 0.0 0.0 0.00 0.00 0.00 53 1016.4
20260508204542 78 263 0.0 0.0 0.00 0.00 0.00 55 1016.5
20260508203038 78 277 0.0 0.0 0.00 0.00 0.00 54 1016.6
20260508201540 77 252 0.0 0.0 0.00 0.00 0.00 54 1016.7
20260508200042 76 242 0.0 0.0 0.00 0.00 0.00 57 1016.8
20260508194529 76 325 0.0 0.0 0.00 0.00 0.00 58 1017.0
20260508193026 74 254 0.0 0.0 0.00 0.00 0.00 59 1017.2
20260508191524 74 214 0.0 0.0 0.00 0.00 0.00 60 1017.3
20260508190021 73 323 0.0 0.0 0.00 0.00 0.00 61 1017.4
20260508184525 73 341 0.0 0.0 0.00 0.00 0.00 62 1017.5
20260508183013 71 324 0.0 0.0 0.00 0.00 0.00 63 1017.7
20260508181510 70 264 0.0 0.0 0.00 0.00 0.00 64 1017.8
20260508180005 69 287 0.0 0.0 0.00 0.00 0.00 64 1017.7
20260508174502 68 333 0.0 0.0 0.00 0.00 0.00 66 1017.8
20260508173109 67 300 0.0 0.0 0.00 0.00 0.00 67 1017.9
20260508171558 66 290 0.0 0.0 0.00 0.00 0.00 69 1018.1
20260508170054 65 251 0.0 0.0 0.00 0.00 0.00 69 1018.0
20260508164550 63 255 0.0 0.0 0.00 0.00 0.00 73 1017.9
20260508163048 62 261 0.0 0.0 0.00 0.00 0.00 75 1018.0
20260508161542 61 246 0.0 0.0 0.00 0.00 0.00 77 1018.0
20260508160039 60 233 0.0 0.0 0.00 0.00 0.00 79 1018.1
20260508154532 59 241 0.0 0.0 0.00 0.00 0.00 82 1018.2
20260508153028 58 254 0.0 0.0 0.00 0.00 0.00 82 1018.2
20260508151523 57 271 0.0 0.0 0.00 0.00 0.00 84 1018.1
20260508150022 56 273 0.0 0.0 0.00 0.00 0.00 86 1018.2
20260508144533 55 271 0.0 0.0 0.00 0.00 0.00 89 1017.9
20260508143024 54 273 0.0 0.0 0.00 0.00 0.00 91 1017.8
20260508141515 53 271 0.0 0.0 0.00 0.00 0.00 92 1017.6
20260508140004 53 294 0.0 0.0 0.00 0.00 0.00 92 1017.5
20260508134601 52 256 0.0 0.0 0.00 0.00 0.00 92 1017.3
20260508133055 52 258 0.0 0.0 0.00 0.00 0.00 92 1017.2
20260508131557 51 255 0.0 0.0 0.00 0.00 0.00 92 1017.3
20260508130048 51 259 0.0 0.0 0.00 0.00 0.00 92 1017.3
20260508124548 51 268 0.0 0.0 0.00 0.00 0.00 92 1017.2
20260508123046 51 284 0.0 0.0 0.00 0.00 0.00 92 1017.2
20260508121547 52 275 0.0 0.0 0.00 0.00 0.00 92 1017.1
20260508120042 52 271 0.0 0.0 0.00 0.00 0.00 92 1016.9
20260508114540 52 258 0.0 0.0 0.00 0.00 0.00 91 1017.0
20260508113103 52 261 0.0 0.0 0.00 0.00 0.00 91 1016.9
20260508111537 53 275 0.0 0.0 0.00 0.00 0.00 91 1016.8
20260508110035 53 273 0.0 0.0 0.00 0.00 0.00 91 1016.8
20260508104542 53 281 0.0 0.0 0.00 0.00 0.00 90 1016.7
20260508103031 53 270 0.0 0.0 0.00 0.00 0.00 90 1016.6
20260508101536 54 261 0.0 0.0 0.00 0.00 0.00 90 1016.7
20260508100035 54 281 0.0 0.0 0.00 0.00 0.00 90 1016.7
20260508094527 54 282 0.0 0.0 0.00 0.00 0.00 90 1016.6
20260508093026 54 261 0.0 0.0 0.00 0.00 0.00 91 1016.6
20260508091527 54 268 0.0 0.0 0.00 0.00 0.00 90 1016.5
20260508090025 55 288 0.0 0.0 0.00 0.00 0.00 90 1016.5
20260508084520 55 246 0.0 0.0 0.00 0.00 0.00 90 1016.5
20260508083019 55 270 0.0 0.0 0.00 0.00 0.00 90 1016.5
20260508081518 55 263 0.0 0.0 0.00 0.00 0.00 90 1016.4
20260508080020 56 290 0.0 0.0 0.00 0.00 0.00 89 1016.5
20260508074517 56 273 0.0 0.0 0.00 0.00 0.00 88 1016.4
20260508073010 57 269 0.0 0.0 0.00 0.00 0.00 87 1016.4
20260508071509 57 281 0.0 0.0 0.00 0.00 0.00 86 1016.3
20260508070006 58 287 0.0 0.0 0.00 0.00 0.00 85 1016.2
20260508064525 58 285 0.0 0.0 0.00 0.00 0.00 84 1016.1
20260508063005 59 275 0.0 0.0 0.00 0.00 0.00 84 1015.9
20260508061506 59 276 0.0 0.0 0.00 0.00 0.00 83 1015.8
20260508060004 60 257 0.0 0.0 0.00 0.00 0.00 83 1015.8
20260508054506 60 269 0.0 0.0 0.00 0.00 0.00 82 1015.9
20260508053003 61 271 0.0 0.0 0.00 0.00 0.00 81 1016.0
20260508051505 61 269 0.0 0.0 0.00 0.00 0.00 81 1016.0
20260508050001 62 268 0.0 0.0 0.00 0.00 0.00 80 1016.0
20260508044600 63 259 0.0 0.0 0.00 0.00 0.00 78 1015.9
20260508043001 64 254 0.0 0.0 0.00 0.00 0.00 76 1015.6
20260508041600 65 276 0.0 0.0 0.00 0.00 0.00 75 1015.5
20260508040106 66 268 0.0 0.0 0.00 0.00 0.00 72 1015.5
20260508034559 67 255 0.0 0.0 0.00 0.00 0.00 71 1015.2
20260508033059 68 257 0.0 0.0 0.00 0.00 0.00 68 1015.1
20260508031606 70 273 0.0 0.0 0.00 0.00 0.00 67 1015.0
20260508030105 72 274 0.0 0.0 0.00 0.00 0.00 64 1014.9
20260508024557 74 244 0.0 0.0 0.00 0.00 0.00 68 1014.8
20260508023057 76 274 0.0 0.0 0.00 0.00 0.00 65 1014.6
20260508021604 78 252 0.0 0.0 0.00 0.00 0.00 62 1014.5
20260508020055 80 244 0.0 0.0 0.00 0.00 0.00 59 1014.4
20260508014554 81 261 0.0 0.0 0.00 0.00 0.00 56 1014.4
20260508013056 82 231 0.0 0.0 0.00 0.00 0.00 56 1014.4
20260508011556 83 286 0.0 0.0 0.00 0.00 0.00 54 1014.4
20260508010051 84 306 0.0 0.0 0.00 0.00 0.00 53 1014.5
20260508004551 84 355 0.0 0.0 0.00 0.00 0.00 52 1014.5
20260508003050 84 272 0.0 0.0 0.00 0.00 0.00 52 1014.6
20260508001549 84 327 0.0 0.0 0.00 0.00 0.00 51 1014.6
20260507234548 84 291 0.0 0.0 0.00 0.00 0.00 53 1014.7
20260507233043 83 224 0.0 0.0 0.00 0.00 0.00 51 1014.8
20260507231545 83 244 0.0 0.0 0.00 0.00 0.00 52 1015.0
20260507230038 83 282 0.0 0.0 0.00 0.00 0.00 53 1015.2
20260507224536 83 242 0.0 0.0 0.00 0.00 0.00 54 1015.4
20260507223034 82 254 0.0 0.0 0.00 0.00 0.00 55 1015.6
20260507221531 82 340 0.0 0.0 0.00 0.00 0.00 55 1015.9
20260507220028 82 267 0.0 0.0 0.00 0.00 0.00 55 1016.1
20260507214528 81 335 0.0 0.0 0.00 0.00 0.00 56 1016.4
20260507213020 80 250 0.0 0.0 0.00 0.00 0.00 58 1016.6